Regional Weather Roundup
Issued by NWS

Home | Current Version | Previous Version | Graphics & Text | Print | Product List | Glossary On
Versions: 1 2 3 4 5 6 7 8 9 10 11 12 13 14 15 16 17 18 19 20 21 22 23 24 25 26 27 28 29 30 31 32 33 34 35 36 37 38 39 40 41 42 43 44 45 46 47 48 49 50
000
ASUS43 KLOT 040103
RWRIL

ILLINOIS REGIONAL WEATHER ROUNDUP
NATIONAL WEATHER SERVICE CHICAGO/ROMEOVILLE IL
700 PM CST SAT DEC 03 2016

NOTE: "FAIR" INDICATES FEW OR NO CLOUDS BELOW 12,000 FEET WITH NO
SIGNIFICANT WEATHER AND/OR OBSTRUCTIONS TO VISIBILITY.

* THESE STATIONS ARE NOT UNDER NWS QUALITY CONTROL. THEY ALSO MAY NOT
  REPORT WEATHER SUCH AS PRECIPITATION OR FOG.

ILZ001-002-007-009-015-016-024-040200-
NORTHWEST ILLINOIS

CITY           SKY/WX    TMP DP  RH WIND       PRES   REMARKS
MOLINE         PTCLDY    34  26  72 S6        30.28R WCI  29
STERLING*      PTCLDY    34  28  79 S3        30.28F
$$

ILZ003-004-008-010-011-017-018-040200-
NORTH CENTRAL ILLINOIS

CITY           SKY/WX    TMP DP  RH WIND       PRES   REMARKS
ROCKFORD       CLOUDY    33  26  75 SE3       30.31R
FREEPORT*      CLOUDY    31  28  87 SE5       30.29S WCI  26
ROCHELLE*      MOCLDY    32  30  90 CALM      30.29S
$$

ILZ005-006-012>014-019>023-040200-
NORTHEAST ILLINOIS

CITY           SKY/WX    TMP DP  RH WIND       PRES   REMARKS
CHICAGO-OHARE  MOCLDY    31  24  75 S3        30.29F
CHICAGO-MIDWAY MOCLDY    33  23  66 S6        30.31S WCI  28
AURORA         CLOUDY    31  26  82 SE3       30.30S
LANSING*       CLOUDY    29  27  94 CALM      30.31F
WAUKEGAN       CLOUDY    31  25  78 CALM      30.29F
DUPAGE AIRPORT CLOUDY    32  25  75 CALM      30.29S
WHEELING       CLOUDY    29  23  78 CALM      30.31S
NORTHERLY ISL    N/A     33  23  67 S7          N/A  WCI  27
$$

LMZ740>746-040200-
SOUTHERN LAKE MICHIGAN

STATION/POSITION SKY/WX   TEMP    WIND        PRES    VSBY  WAVE
                          AIR SEA DIR/SP/G                  HT/PER
                          (F)     (DEG/KT/KT) (MB)    (MI)  (FT/S)
SOUTHERN BUOY              35 48  270/ 10/ 14 1026.1          1/ 3
HARRISON CRIB              35     260/  5/  6   N/A
BURNHAM HARBOR             33     190/  4/  6   N/A
CALUMET HARBOR             33     220/  4/  4 1025.9S
BURNS HARBOR               34     220/  6/  7 1027.1R
MICHIGAN CITY              35     230/  6/  8   N/A
$$

ILZ025>027-034>036-040-047-049-050-058-095>099-040200-
WEST-CENTRAL ILLINOIS

CITY           SKY/WX    TMP DP  RH WIND       PRES   REMARKS
QUINCY         CLOUDY    38  32  79 E7        30.26R WCI  33
GALESBURG*     CLOUDY    33  28  83 E5        30.28R WCI  28
MACOMB*        CLOUDY    35  31  85 E7        30.30S WCI  29
JACKSONVILLE*  CLOUDY    37  34  87 E6        30.28R WCI  33
PITTSFIELD*    CLOUDY    38  34  84 SE5       30.28R WCI  35
$$

ILZ028>032-037-038-041>044-048-051>054-059>061-040200-
CENTRAL ILLINOIS

CITY           SKY/WX    TMP DP  RH WIND       PRES   REMARKS
BLOOMINGTON    PTCLDY    29  27  92 E7        30.31S WCI  22
DECATUR        CLOUDY    35  30  82 E8        30.30F WCI  29
PEORIA         PTCLDY    34  28  79 E5        30.30S WCI  30
SPRINGFIELD    CLOUDY    37  31  78 E8        30.29F WCI  31
TAYLORVILLE    NOT AVBL
$$

ILZ033-039-045-046-055>057-062-063-040200-
EAST-CENTRAL ILLINOIS

CITY           SKY/WX    TMP DP  RH WIND       PRES   REMARKS
CHAMPAIGN      CLOUDY    32  27  81 NE7       30.31F WCI  26
MATTOON        CLOUDY    34  29  82 E6        30.30S WCI  29
PARIS*         CLOUDY    33  29  85 CALM      30.32F
$$

ILZ079-100>102-040200-
SOUTHWEST ILLINOIS

CITY           SKY/WX    TMP DP  RH WIND       PRES   REMARKS
ALTON          CLOUDY    37  32  81 CALM      30.29R
BELLEVILLE     CLOUDY    39  35  84 E2        30.27S
CAHOKIA*       CLOUDY    40  33  76 CALM      30.28S
SPARTA*        MOCLDY    39  34  82 E3        30.29S
$$

ILZ064>066-069>071-074>076-080>082-084>086-088>090-092>094-040200-
SOUTH-CENTRAL ILLINOIS

CITY           SKY/WX    TMP DP  RH WIND       PRES   REMARKS
CARBONDALE     CLOUDY    41  33  73 E5        30.29S
CAIRO*         CLOUDY    42  32  68 E6        30.28S
CENTRALIA*     CLOUDY    40  34  78 CALM      30.28S
SALEM*         CLOUDY    40  32  72 CALM      30.29S
$$

ILZ067-068-072-073-078-083-087-091-040200-
SOUTHEAST ILLINOIS

CITY           SKY/WX    TMP DP  RH WIND       PRES   REMARKS
LAWRENCEVILLE  CLOUDY    39  31  72 NE5       30.32R
HARRISBURG*    CLOUDY    41  34  76 E3        30.29F
ROBINSON*      CLOUDY    36  31  83 NE5       30.33R WCI  32
CARMI*         CLOUDY    39  34  81 E5        30.30S
$$

ABBREVIATIONS USED IN REMARKS
   TC - TEMPERATURE IN CELSIUS
  WCI - WIND CHILL INDEX
   HX - HEAT INDEX
  VSB - VISIBILITY
$$





USA.gov is the U.S. government's official web portal to all federal, state and local government web resources and services.